Temp
61 59 56 56 58 57 56 56 55 53 52 51 51 50 50 49 49 48 46 44 44 42 43 42 41 41 41 41 40 40 40 39 37 39 39 38 35 34 35 35 34 34 34
59 57 56 56 56 56 56 55 53 52 51 51 50 49 49 48 47 47 45 44 44 41 41 41 40 42 39 40 40 39 39 39 36 35 37 34 33 34 33 32 33 32 32
58 57 56 56 55 55 54 52 51 51 50 50 49 48 47 47 45 45 45 42 42 42 41 40 40 39 38 38 38 38 37 39 36 34 34 34 33 32 31 31 30 30 32
56 55 53 53 54 54 52 50 50 50 49 48 48 48 47 45 44 44 44 41 41 41 39 39 39 38 38 38 37 36 36 34 34 33 33 32 31 30 28 26 26 28 27
53 53 52 51 53 51 49 48 48 48 48 48 46 46 45 44 45 43 41 41 40 39 37 37 37 36 35 36 36 35 34 33 32 31 31 31 29 27 25 25 23 24 25
51 51 51 49 47 45 46 44 43 44 44 43 42 42 42 44 43 42 41 39 38 37 37 36 36 32 33 34 35 35 35 33 32 30 29 29 29 27 25 23 22 20 19
49 47 45 44 42 43 42 42 41 42 42 41 40 41 40 42 41 40 39 37 37 37 37 35 34 33 33 34 34 34 33 33 33 31 29 29 26 27 23 18 19 19 20
45 43 42 42 41 39 40 40 40 41 40 40 40 40 41 41 40 39 37 37 37 37 36 36 35 34 33 33 32 30 29 29 29 29 28 28 28 27 25 25 22 19 19
42 42 41 40 38 38 38 39 40 39 38 38 38 38 37 38 39 39 37 35 35 35 35 35 34 34 35 35 31 27 25 26 30 28 28 29 28 28 27 21 16 15 16
42 41 40 40 38 38 38 37 37 38 36 36 35 35 35 36 39 38 38 35 33 33 34 34 32 34 35 35 30 25 21 23 22 21 22 26 26 24 24 22 19 14 16
38 37 37 38 37 38 37 35 35 34 34 33 33 33 33 33 36 38 39 35 34 33 33 32 32 35 35 35 34 27 25 25 25 20 20 21 19 19 20 19 20 18 14
36 36 35 35 35 35 34 33 33 33 33 32 32 33 34 33 34 37 38 39 38 34 33 33 32 34 35 35 34 34 33 29 22 21 19 19 19 18 18 18 18 18 19
35 34 34 33 33 33 33 33 33 33 34 34 33 34 34 33 33 35 37 38 38 35 34 34 35 35 35 34 35 35 32 28 20 20 19 19 20 20 18 16 16 15 13
34 34 33 33 33 33 34 34 34 34 34 34 33 33 34 33 32 32 32 33 34 36 36 34 34 33 33 32 29 33 31 29 25 21 21 21 20 16 13 15 12 12 8
34 33 33 33 33 33 33 34 34 34 35 33 33 33 33 33 33 35 33 31 32 33 31 33 32 29 29 29 29 29 30 30 24 23 22 20 17 14 12 14 12 11 7
33 33 34 33 33 33 33 32 32 33 33 33 35 34 32 33 34 34 34 34 34 34 31 30 30 30 28 28 27 27 27 26 24 23 21 20 17 14 13 13 11 8 7
33 31 31 32 32 31 31 33 32 29 32 33 34 35 35 35 35 35 34 34 34 34 29 29 29 29 28 28 28 27 27 26 24 23 21 19 18 16 13 12 10 7 6
28 29 31 31 31 31 31 30 30 30 30 29 30 29 30 31 32 34 35 35 31 32 30 30 29 30 29 29 28 28 27 26 23 22 20 19 18 16 14 11 12 9 7
28 27 27 26 25 26 27 27 27 27 27 27 27 29 25 30 31 32 33 30 30 30 31 30 31 31 31 30 29 28 27 26 25 21 19 18 18 16 14 14 12 11 10
20 20 24 25 24 25 25 25 25 25 24 24 25 24 25 27 28 29 30 29 29 28 29 29 30 31 31 30 30 27 27 25 24 22 19 18 17 17 14 13 13 12 9
22 19 19 23 23 23 23 22 22 22 22 23 23 24 27 27 27 27 27 27 26 26 25 26 25 26 28 28 28 26 25 25 24 22 20 19 18 16 15 14 13 12 12
22 21 22 20 21 21 20 21 22 23 22 22 24 25 25 22 23 22 23 23 23 23 24 23 23 24 25 25 26 25 24 23 22 22 21 19 17 16 15 12 11 11 9
21 20 20 18 18 15 19 19 21 21 21 20 19 18 18 19 19 19 19 20 20 20 21 20 19 19 20 21 23 24 22 22 22 22 21 18 17 15 13 11 10 9 8
19 19 18 18 17 18 18 18 17 13 15 16 16 16 16 15 15 14 15 16 14 14 14 14 14 14 15 16 18 19 21 21 21 21 20 19 17 15 13 11 10 9 8
17 17 15 15 15 14 15 15 14 14 14 14 13 13 13 13 12 13 13 12 9 11 11 12 13 12 12 11 12 12 15 17 17 18 18 17 15 14 13 10 9 8 7
14 13 13 13 12 12 12 12 11 11 10 11 11 11 10 10 10 11 10 8 8 9 9 11 11 10 10 12 11 13 13 16 16 17 16 15 12 11 11 10 8 8 6
MSLP
1015.58 1016.45 1017.14 1017.78 1018.37 1019.05 1019.67 1020.43 1021.13 1021.72 1022.18 1022.80 1023.31 1023.79 1024.56 1025.13 1025.45 1025.74 1026.32 1026.64 1026.93 1027.37 1027.38 1027.87 1028.14 1028.75 1028.71 1029.02 1028.79 1028.80 1028.68 1028.65 1028.66 1028.46 1028.97 1029.38 1029.86 1029.96 1030.07 1030.11 1030.34 1030.55 1030.56
1015.66 1016.24 1016.84 1017.59 1018.18 1018.78 1019.53 1020.25 1021.04 1021.66 1022.19 1022.59 1023.07 1023.64 1024.38 1024.92 1025.36 1025.88 1026.20 1026.46 1026.63 1026.84 1027.51 1027.91 1028.41 1028.72 1028.79 1029.22 1029.07 1028.61 1028.69 1028.64 1028.94 1028.50 1028.54 1029.19 1029.64 1029.67 1030.04 1030.16 1030.10 1030.46 1030.61
1015.45 1015.85 1016.61 1017.34 1018.04 1018.78 1019.46 1020.23 1020.95 1021.71 1022.18 1022.67 1023.03 1023.50 1024.28 1024.83 1025.23 1025.52 1025.73 1026.05 1026.51 1027.03 1027.56 1027.92 1028.42 1028.81 1028.93 1029.06 1028.94 1028.55 1028.68 1028.82 1028.94 1029.09 1029.04 1029.28 1029.48 1029.77 1029.96 1030.08 1030.11 1030.17 1030.26
1015.46 1015.99 1016.66 1017.35 1018.06 1018.75 1019.58 1020.29 1020.97 1021.64 1022.11 1022.46 1022.91 1023.46 1023.99 1024.43 1024.96 1025.40 1025.86 1026.23 1026.66 1027.00 1027.73 1027.88 1028.25 1028.62 1028.58 1028.96 1028.93 1028.78 1028.71 1028.98 1028.93 1029.10 1029.18 1029.17 1029.41 1029.85 1030.18 1030.26 1030.11 1030.00 1030.02
1015.47 1015.96 1016.62 1017.43 1018.08 1018.74 1019.59 1020.29 1020.97 1021.68 1022.18 1022.41 1022.74 1023.33 1023.71 1024.30 1024.69 1025.38 1025.79 1026.09 1026.60 1027.00 1027.29 1027.72 1028.02 1028.32 1028.71 1028.96 1028.91 1028.75 1028.74 1028.93 1029.13 1029.18 1029.20 1029.29 1029.40 1029.83 1030.09 1030.04 1030.40 1030.25 1029.96
1015.42 1016.01 1016.63 1017.63 1018.40 1019.06 1019.72 1020.47 1020.88 1021.66 1021.89 1022.19 1022.75 1023.15 1023.49 1024.02 1024.40 1025.03 1025.58 1025.90 1026.10 1026.73 1027.30 1027.55 1027.73 1028.60 1028.86 1028.96 1028.95 1028.89 1028.81 1028.82 1029.04 1029.12 1029.14 1029.12 1029.15 1029.44 1029.78 1030.19 1030.42 1030.33 1030.28
1015.62 1016.24 1016.84 1017.71 1018.46 1019.14 1019.75 1020.29 1020.72 1021.35 1021.74 1022.13 1022.62 1022.94 1023.45 1023.78 1024.38 1024.91 1025.11 1025.51 1026.01 1026.28 1026.59 1027.34 1027.38 1028.01 1028.24 1028.49 1028.67 1028.58 1028.81 1028.89 1028.68 1029.21 1029.17 1029.01 1029.01 1029.15 1029.62 1030.18 1030.39 1030.50 1030.43
1015.62 1016.29 1016.89 1017.52 1018.30 1019.05 1019.62 1020.03 1020.54 1021.06 1021.52 1021.80 1022.33 1022.72 1023.06 1023.29 1023.76 1024.26 1025.06 1025.22 1025.78 1026.03 1026.31 1026.91 1027.06 1027.54 1027.90 1027.95 1028.16 1028.42 1028.64 1028.94 1029.02 1029.22 1029.29 1029.06 1029.01 1029.09 1029.51 1029.61 1030.11 1030.43 1030.49
1015.48 1016.22 1016.73 1017.32 1018.09 1018.80 1019.31 1019.71 1020.13 1020.55 1020.93 1021.33 1021.86 1022.51 1022.86 1023.45 1024.02 1024.31 1024.81 1025.12 1025.38 1025.34 1026.00 1026.11 1026.41 1026.87 1027.02 1027.40 1027.72 1028.12 1028.35 1028.61 1028.88 1029.18 1029.29 1029.15 1029.13 1029.10 1029.42 1029.93 1030.23 1030.38 1030.10
1015.13 1015.76 1016.31 1016.98 1017.79 1018.47 1019.05 1019.52 1019.90 1020.42 1020.77 1021.28 1021.87 1022.45 1023.12 1023.17 1023.58 1023.97 1024.08 1024.55 1024.81 1025.18 1025.50 1025.73 1025.91 1026.20 1026.48 1026.77 1027.24 1027.55 1027.94 1028.23 1028.55 1028.94 1029.13 1028.98 1028.99 1029.19 1029.45 1029.53 1029.70 1029.89 1029.91
1014.78 1015.57 1016.38 1016.93 1017.53 1018.10 1018.85 1019.42 1019.86 1020.41 1020.96 1021.69 1022.17 1022.30 1022.64 1022.89 1023.13 1023.29 1023.32 1023.63 1024.07 1024.45 1024.58 1024.84 1025.17 1025.32 1025.71 1025.84 1025.98 1026.49 1026.83 1027.56 1027.89 1028.44 1028.73 1028.83 1029.08 1029.16 1029.16 1029.51 1029.60 1029.59 1029.65
1014.59 1015.67 1016.51 1016.98 1017.57 1018.17 1018.82 1019.57 1019.86 1020.54 1021.34 1021.75 1022.05 1022.11 1022.16 1022.34 1022.60 1022.60 1022.71 1022.62 1022.98 1023.22 1023.35 1023.59 1024.12 1024.49 1024.74 1024.86 1025.15 1025.28 1025.74 1026.61 1027.52 1027.97 1028.22 1028.27 1028.39 1028.55 1028.69 1028.95 1029.21 1029.31 1029.27
1014.61 1015.63 1016.45 1017.23 1017.76 1018.20 1018.72 1019.32 1019.92 1020.60 1020.98 1021.15 1021.58 1021.64 1021.75 1021.68 1021.79 1022.13 1022.41 1022.25 1022.23 1022.38 1022.73 1023.02 1023.47 1023.74 1024.02 1024.13 1024.19 1024.48 1024.93 1025.67 1026.68 1027.19 1027.26 1027.34 1027.40 1027.57 1027.97 1028.40 1028.74 1028.92 1029.09
1014.80 1015.68 1016.49 1017.04 1017.77 1018.11 1018.38 1018.75 1019.21 1019.91 1020.41 1020.79 1021.06 1021.16 1020.98 1021.21 1021.53 1021.64 1021.95 1022.05 1021.98 1021.95 1022.24 1022.79 1022.99 1023.25 1023.60 1023.63 1023.80 1023.78 1024.11 1024.67 1025.25 1025.79 1026.06 1026.31 1026.68 1027.14 1027.67 1027.99 1028.31 1028.53 1028.81
1015.06 1015.75 1016.37 1016.92 1017.42 1018.03 1018.45 1018.78 1019.05 1019.41 1019.82 1020.26 1020.39 1020.63 1020.88 1021.07 1021.30 1021.43 1021.47 1021.66 1021.72 1021.79 1022.29 1022.39 1022.62 1022.76 1022.95 1023.15 1023.27 1023.42 1023.61 1023.83 1024.31 1024.82 1025.18 1025.45 1025.88 1026.51 1026.93 1027.30 1027.53 1027.74 1027.83
1015.21 1015.87 1016.55 1016.94 1017.23 1017.51 1018.24 1018.80 1019.12 1019.73 1019.76 1020.09 1020.56 1020.57 1020.89 1021.22 1021.34 1021.40 1021.52 1021.48 1021.67 1022.05 1022.13 1022.20 1022.03 1022.34 1022.54 1022.72 1022.77 1022.87 1023.03 1023.25 1023.63 1023.98 1024.24 1024.49 1024.84 1025.36 1025.83 1026.25 1026.65 1026.89 1026.86
1015.91 1016.35 1016.50 1016.99 1017.38 1017.77 1018.27 1018.51 1019.09 1019.73 1019.52 1020.11 1020.35 1020.54 1021.14 1021.04 1021.12 1021.19 1021.33 1021.10 1021.34 1021.70 1022.16 1022.26 1021.94 1022.07 1022.17 1022.16 1022.09 1022.10 1022.17 1022.36 1022.75 1023.13 1023.32 1023.56 1023.85 1024.19 1024.76 1025.10 1025.39 1025.60 1025.61
1016.52 1016.83 1017.21 1017.65 1018.34 1018.87 1018.94 1018.99 1019.27 1019.41 1020.19 1020.28 1020.76 1020.94 1021.18 1021.15 1020.51 1020.91 1021.31 1020.74 1020.64 1021.17 1021.50 1021.60 1021.40 1021.42 1021.42 1021.31 1021.28 1021.33 1021.44 1021.65 1021.97 1022.28 1022.47 1022.65 1022.89 1023.15 1023.48 1023.68 1023.86 1024.04 1024.25
1017.28 1017.65 1017.87 1017.98 1018.57 1019.30 1019.76 1019.83 1019.96 1020.13 1020.51 1020.51 1020.71 1020.79 1021.31 1021.39 1020.47 1020.57 1021.34 1020.95 1020.53 1020.75 1020.69 1020.74 1020.76 1020.71 1020.65 1020.58 1020.51 1020.63 1020.78 1020.89 1021.04 1021.43 1021.58 1021.74 1021.90 1022.15 1022.26 1022.39 1022.57 1022.75 1023.01
1018.34 1018.56 1018.48 1018.78 1019.16 1019.46 1019.75 1020.43 1020.51 1020.85 1020.98 1020.88 1021.31 1021.03 1021.34 1021.19 1020.39 1020.81 1021.18 1021.10 1021.09 1020.95 1020.80 1020.62 1020.62 1020.47 1020.22 1019.99 1019.99 1020.11 1020.22 1020.32 1020.42 1020.55 1020.76 1020.97 1021.08 1021.19 1021.23 1021.31 1021.42 1021.49 1021.59
1018.89 1019.36 1019.42 1019.24 1019.70 1019.94 1020.25 1020.81 1021.42 1021.46 1021.40 1021.47 1021.68 1021.63 1021.33 1021.04 1020.57 1020.53 1021.79 1021.89 1021.74 1021.44 1021.24 1021.05 1020.97 1020.93 1020.64 1020.40 1020.26 1020.13 1019.94 1019.80 1019.81 1019.86 1019.98 1020.06 1020.15 1020.14 1020.08 1020.16 1020.22 1020.34 1020.50
1020.02 1020.33 1020.30 1020.36 1020.58 1020.65 1020.57 1020.94 1021.77 1022.04 1022.00 1021.93 1021.83 1021.81 1021.54 1020.87 1021.55 1021.40 1022.55 1022.84 1022.46 1021.96 1021.73 1021.50 1021.29 1021.15 1020.90 1020.63 1020.24 1019.93 1019.68 1019.47 1019.41 1019.36 1019.32 1019.34 1019.38 1019.42 1019.48 1019.57 1019.60 1019.59 1019.72
1021.04 1020.99 1021.07 1021.16 1021.04 1021.28 1020.90 1021.48 1021.74 1022.48 1022.90 1022.67 1022.33 1022.11 1021.55 1021.53 1022.01 1022.15 1023.45 1023.59 1022.95 1022.41 1022.07 1021.75 1021.59 1021.46 1021.22 1020.85 1020.43 1019.95 1019.59 1019.31 1019.08 1018.95 1018.82 1018.75 1018.71 1018.72 1018.80 1018.83 1018.79 1018.87 1018.96
1021.85 1021.63 1021.37 1021.62 1021.30 1021.72 1021.67 1022.28 1022.68 1022.45 1023.28 1023.12 1022.55 1022.21 1022.06 1022.49 1022.72 1023.17 1023.89 1023.80 1023.34 1022.74 1022.27 1021.92 1021.86 1021.72 1021.35 1021.05 1020.62 1020.17 1019.69 1019.21 1018.89 1018.63 1018.37 1018.11 1017.90 1017.77 1017.81 1017.82 1017.86 1017.82 1017.97
1022.14 1021.96 1022.24 1021.59 1022.22 1022.54 1022.41 1022.88 1023.09 1022.88 1023.14 1023.01 1022.82 1022.93 1022.90 1023.22 1023.54 1023.83 1024.17 1023.87 1023.47 1022.75 1022.25 1022.02 1021.81 1021.57 1021.34 1021.02 1020.58 1020.13 1019.69 1019.27 1018.86 1018.43 1018.09 1017.71 1017.44 1017.32 1017.16 1017.12 1017.05 1017.15 1017.31
1022.60 1022.54 1022.60 1022.62 1022.90 1023.07 1023.04 1023.41 1023.35 1022.85 1023.51 1023.24 1023.54 1023.72 1023.96 1023.99 1024.16 1024.41 1024.35 1023.95 1023.43 1022.78 1022.39 1021.99 1021.74 1021.46 1021.09 1020.60 1020.14 1019.71 1019.34 1018.82 1018.25 1017.70 1017.25 1016.99 1016.78 1016.74 1016.69 1016.54 1016.52 1016.52 1016.55
Wind_Speed
12 11 10 10 11 10 8 8 9 10 10 10 9 8 7 7 6 5 5 5 4 5 4 4 4 3 2 3 2 1 2 2 3 2 1 3 3 3 3 3 0 3 1
12 12 11 11 11 10 10 10 10 10 10 9 9 8 8 7 6 5 6 6 7 7 5 5 4 3 3 1 3 3 2 1 2 4 2 3 3 2 3 3 2 1 3
11 11 11 10 10 10 10 10 10 10 9 9 8 8 8 7 7 6 7 7 5 5 5 5 4 4 3 3 5 3 2 3 3 3 3 1 1 1 3 3 2 2 2
10 10 9 10 10 9 9 10 10 9 10 9 8 8 7 7 7 7 5 5 5 4 4 3 4 5 4 4 4 3 2 3 3 3 3 2 2 2 1 2 3 2 2
10 10 10 8 9 9 10 9 8 8 8 8 8 7 7 7 6 7 6 6 5 5 5 5 4 4 1 4 2 3 4 3 3 3 3 2 3 3 3 2 1 2 3
10 9 9 9 8 8 9 8 8 8 7 6 7 7 8 5 8 9 6 6 6 5 5 6 5 4 6 9 8 7 6 4 4 3 3 4 4 2 2 2 1 1 1
8 7 8 9 9 9 9 9 9 9 8 7 7 7 6 6 11 11 11 4 5 6 6 5 5 4 6 6 8 8 8 9 8 5 6 4 2 4 2 2 3 2 2
8 8 8 10 9 8 9 9 8 7 8 7 6 6 7 6 13 14 13 7 5 5 5 6 6 7 8 7 7 7 6 5 4 3 5 4 3 3 5 1 1 1 2
10 10 10 10 10 10 11 10 8 8 7 7 5 7 7 4 10 12 12 7 6 6 5 7 8 8 12 15 8 6 5 5 4 7 8 7 5 6 5 3 2 2 2
11 11 10 10 10 10 10 9 4 4 4 4 4 3 4 5 11 15 14 5 7 6 6 8 13 11 13 16 10 7 7 7 5 3 4 6 6 6 7 4 1 3 2
7 7 8 9 9 8 6 4 4 3 4 4 3 3 5 6 7 16 18 8 7 7 7 7 7 19 20 18 19 10 9 4 8 5 4 4 4 3 4 5 5 4 3
8 7 6 5 4 5 7 4 5 5 4 3 3 4 5 6 10 14 18 21 16 9 8 6 6 17 19 21 16 18 18 11 4 5 5 6 6 6 6 5 6 6 5
8 7 6 6 5 5 6 6 5 4 4 5 5 5 4 4 4 13 16 19 21 12 6 7 11 14 17 16 21 19 14 8 7 7 8 7 7 5 4 3 4 4 4
8 7 6 7 6 5 5 6 6 6 5 4 4 5 3 2 3 4 5 7 13 11 11 9 9 10 12 10 7 12 8 8 9 8 8 6 4 3 4 5 5 5 4
8 6 6 5 5 5 2 3 3 2 3 3 3 3 2 2 2 4 4 3 4 6 5 5 6 5 6 6 6 7 7 7 8 8 7 6 6 6 6 6 6 4 6
8 6 5 5 5 5 5 3 2 2 2 2 4 2 1 2 5 5 5 6 8 7 4 7 7 7 5 5 6 6 8 8 8 7 7 7 7 7 7 7 6 7 7
7 6 4 5 4 5 2 3 3 3 4 0 2 3 6 6 7 7 6 5 5 5 5 6 5 6 6 7 8 8 8 8 8 8 8 8 8 7 7 8 8 8 8
7 8 5 5 5 4 3 3 2 3 1 2 5 4 5 5 3 6 9 7 3 6 6 6 6 6 7 7 7 8 7 7 7 8 8 8 8 8 8 8 10 10 9
5 5 4 5 5 4 3 3 3 3 2 2 1 2 3 4 2 3 6 4 3 3 3 5 7 7 6 7 7 7 8 7 7 7 8 8 8 8 9 9 9 13 11
6 7 6 4 4 4 4 3 2 2 1 2 1 2 1 2 3 3 2 4 4 3 4 5 5 5 7 6 6 5 6 6 7 7 7 7 8 8 9 10 10 10 10
4 5 5 5 4 4 3 4 2 1 2 2 1 1 2 3 3 4 4 5 5 5 5 6 6 7 7 6 5 5 6 6 6 7 7 7 8 9 9 9 9 10 9
4 3 3 4 2 3 4 4 2 2 1 0 1 2 7 3 4 5 5 7 6 5 4 5 5 6 6 7 7 6 7 7 6 6 7 7 7 8 8 8 9 9 8
2 3 3 2 3 3 4 4 3 2 3 2 1 1 4 5 4 4 5 6 6 5 5 5 5 6 5 6 7 7 7 7 6 6 7 7 7 7 7 8 9 9 9
2 1 3 2 4 3 4 3 2 4 1 2 3 4 4 4 4 4 4 4 4 4 4 3 4 6 6 6 7 7 7 7 6 7 9 8 8 8 8 8 9 10 9
1 2 1 4 4 2 3 2 2 2 2 3 4 4 4 4 3 3 4 4 3 4 5 4 4 6 7 8 9 9 9 11 11 11 8 9 10 11 9 8 8 8 9
2 3 3 3 3 2 3 2 2 4 3 4 4 4 3 3 3 4 3 4 4 5 6 5 6 9 10 8 8 10 10 14 12 12 9 8 8 8 7 9 11 8 8
Wind_Direction
167 161 154 160 168 161 158 159 162 154 160 164 166 158 160 166 170 166 153 148 138 136 164 168 136 150 173 209 209 233 243 270 280 92 89 127 198 240 201 197 357 313 282
167 161 162 163 160 164 171 162 156 161 168 163 162 159 169 180 163 170 167 168 175 180 169 165 167 180 203 223 233 217 245 215 287 284 139 163 218 182 295 289 217 195 293
165 164 161 164 166 173 164 156 161 161 165 164 161 171 175 176 171 184 182 182 181 171 172 186 165 189 200 210 232 220 216 249 247 268 284 100 227 150 276 250 244 306 255
167 166 166 171 173 169 158 155 166 168 167 168 171 175 179 175 185 190 187 170 177 164 164 186 186 201 222 221 225 235 241 250 240 255 260 240 197 110 283 286 286 173 241
171 172 170 159 165 157 157 161 163 169 170 169 171 179 176 187 192 186 186 177 173 171 172 190 200 211 5 295 242 225 215 241 237 250 257 243 225 189 226 88 276 297 284
174 174 161 159 155 153 154 161 154 168 170 168 176 176 188 197 188 183 169 181 182 176 185 193 194 178 221 233 237 253 268 245 242 236 258 246 244 176 141 218 247 271 306
174 166 148 155 156 162 161 163 169 179 170 176 187 187 193 199 174 189 192 172 179 192 197 200 185 183 206 201 218 227 238 249 250 293 260 252 255 182 150 171 213 199 246
171 161 162 162 160 159 164 174 175 175 182 184 183 189 198 200 181 192 189 198 206 206 194 204 199 203 203 206 195 205 219 221 227 242 263 286 309 135 193 188 54 274 292
177 178 171 165 161 168 181 180 178 179 180 187 174 194 200 189 178 191 188 194 216 207 203 206 210 217 208 211 208 215 222 226 225 245 253 257 233 211 192 150 203 195 260
180 185 172 167 171 179 183 184 170 175 171 166 169 151 177 190 186 199 197 195 214 208 207 215 219 221 217 215 213 204 214 225 189 191 217 216 199 195 210 228 200 210 222
155 143 162 171 175 177 161 148 148 125 108 121 157 171 190 195 204 206 208 207 214 209 215 213 213 218 224 219 216 207 209 180 208 194 213 206 190 223 200 202 227 221 217
138 147 161 156 145 142 144 126 125 127 138 167 189 218 210 199 210 220 221 220 219 215 221 219 209 212 222 225 223 226 221 217 176 201 212 223 217 214 215 209 215 227 242
139 148 140 135 138 144 143 140 126 148 187 201 205 226 226 193 208 230 239 237 234 232 226 227 214 217 222 232 231 229 228 205 186 206 223 226 221 214 190 174 207 222 241
138 139 137 138 144 149 153 159 172 181 198 210 206 225 221 190 187 198 222 243 249 244 242 231 231 220 224 227 222 233 222 211 202 215 224 218 198 162 192 205 214 207 225
123 127 133 138 150 144 113 148 165 157 160 187 202 184 194 226 220 220 210 213 231 238 242 231 232 217 228 224 226 221 224 221 199 212 217 207 194 190 210 205 215 212 219
123 123 138 134 142 138 152 144 133 183 131 255 262 238 71 274 298 294 288 274 258 262 250 249 245 249 243 237 229 230 221 214 211 214 217 213 206 202 205 203 201 212 225
116 129 113 125 133 131 125 131 141 120 90 354 290 272 269 276 281 279 280 272 273 252 245 257 249 251 242 237 237 232 234 222 211 215 219 218 216 211 197 207 208 212 225
74 72 89 69 49 37 43 70 65 79 98 106 76 40 342 309 319 305 274 244 211 229 228 246 252 240 238 238 234 237 236 235 209 216 222 222 217 216 211 214 217 218 222
87 73 80 95 83 87 91 79 76 83 92 94 92 109 22 347 30 355 306 288 281 271 258 245 245 249 248 240 240 235 234 232 223 209 220 221 222 217 225 226 226 223 221
79 80 76 81 90 97 78 60 71 74 84 75 26 55 315 297 33 18 337 315 289 280 289 290 311 281 266 247 246 234 244 235 234 225 226 225 225 223 229 229 227 226 220
65 59 68 78 82 77 88 71 44 44 49 51 45 55 332 325 22 41 353 324 335 334 331 327 317 313 311 317 305 276 258 249 241 236 231 232 229 229 229 231 234 231 234
50 57 54 73 82 88 88 91 69 25 43 71 32 10 7 46 11 21 333 308 314 325 323 317 313 313 316 316 305 289 277 267 252 250 244 240 236 237 237 232 237 235 224
58 105 97 84 94 132 95 70 69 31 354 351 360 339 31 34 16 21 323 308 314 319 319 322 317 308 306 307 310 302 290 288 282 262 262 248 242 240 233 236 235 234 227
21 61 93 106 60 72 67 80 96 97 335 320 16 24 34 26 11 357 302 308 308 312 315 322 310 301 304 306 304 304 305 301 283 281 279 264 255 244 234 235 235 232 232
32 81 75 72 65 78 115 95 85 81 39 23 30 17 24 10 359 335 309 302 297 306 319 312 299 303 304 302 297 293 295 301 296 285 279 269 262 261 251 240 237 236 221
102 81 74 91 99 75 73 83 69 60 36 37 23 13 0 353 339 311 300 295 315 322 308 311 308 303 302 301 298 305 304 304 297 288 262 253 249 252 253 248 244 236 224